Content
SEND FEEDBACK

Daily
Averages
Monthly
Summary
Thailand

PHUKET, THAILAND


Home > Asia > Thailand
Elevation: 33 feet     Latitude: 08 07N     Longitude: 098 19E

WEATHER
 
SELECT A DAY
Number of Records: 236,207;   Date Range: 7/1/96 - 12/19/14
 
SHARE

PRINT THIS DATA

[ ← Previous Day ]
WEATHER ALMANAC - FEBRUARY 19, 2013
[ Next Day → ]
[ °C ]   °F
Weather ElementAverageHighLow
Temperature81 °F91.4 °F (1:00 pm)71.6 °F (6:00 am)
Dewpoint67.9 °F72 °F (1:00 am)60.8 °F (12:00 pm)
Humidity66.5 %94 % (6:00 am)34 % (1:00 pm)
Barometer29.80 in29.86 in (10:00 am)29.73 in (7:00 pm)
Wind Speed5 mph15 mph (3:30 pm)
Weather ElementAverage
Visibility5.4 mi
Wind DirectionENE (77.1 °)

Weather ElementTotal
Precipitation---
Cooling Degree Days16.5 (Base 65)
Growing Degree Days31.5 (Base 50)
Averaged from 49 records on February 19, 2013
WEATHER CONDITIONS BREAKOUT
WIND DIRECTION BREAKOUT
WEATHER BY HOUR - FEBRUARY 19, 2013
[ °C ]   °F
Local TimeTemperatureDewpointHumidityBarometerVisibilityWind DirectionWind SpeedGust SpeedPrecipitationEventsConditions
12:30 AM77.0 °F69.8 °F78 %29.83 in5.0 miVariable1.2 mphMostly Cloudy
1:00 AM79.0 °F72.0 °F73 %29.79 in5.0 miEast (100°)3.5 mphMist
1:00 AM77.0 °F69.8 °F78 %29.80 in5.0 miCalmMostly Cloudy
1:30 AM75.2 °F69.8 °F83 %29.80 in5.0 miCalmMostly Cloudy
2:00 AM75.2 °F69.8 °F83 %29.80 in5.0 miCalmMostly Cloudy
2:30 AM75.2 °F69.8 °F83 %29.80 in5.0 miVariable2.3 mphMostly Cloudy
3:30 AM73.4 °F68.0 °F83 %29.77 in5.0 miVariable1.2 mphMostly Cloudy
4:00 AM73.4 °F69.8 °F88 %29.77 in5.0 miEast (90°)3.5 mphScattered Clouds
4:30 AM73.4 °F69.8 °F88 %29.77 in5.0 miEast (80°)5.8 mphScattered Clouds
5:00 AM73.4 °F69.8 °F88 %29.77 in5.0 miEast (80°)4.6 mphScattered Clouds
5:30 AM73.4 °F69.8 °F88 %29.77 in5.0 miEast (80°)3.5 mphScattered Clouds
6:00 AM71.6 °F69.8 °F94 %29.77 in5.0 miCalmScattered Clouds
6:30 AM71.6 °F69.8 °F94 %29.77 in5.0 miCalmScattered Clouds
7:00 AM72.0 °F70.0 °F91 %29.77 in5.0 miCalmMist
7:00 AM71.6 °F68.0 °F88 %29.80 in5.0 miCalmScattered Clouds
7:30 AM73.4 °F69.8 °F88 %29.80 in5.0 miVariable1.2 mphScattered Clouds
8:00 AM77.0 °F71.6 °F83 %29.83 in5.0 miCalmScattered Clouds
8:30 AM80.6 °F69.8 °F70 %29.83 in5.6 miCalmMostly Cloudy
9:00 AM84.2 °F69.8 °F62 %29.83 in5.6 miVariable2.3 mphMostly Cloudy
9:30 AM84.2 °F68.0 °F58 %29.83 in5.6 miEast (80°)8.1 mphMostly Cloudy
10:00 AM86.0 °F66.2 °F51 %29.86 in5.6 miEast (80°)6.9 mphMostly Cloudy
10:30 AM86.0 °F66.2 °F51 %29.86 in5.6 miEast (80°)9.2 mphMostly Cloudy
11:00 AM87.8 °F66.2 °F49 %29.83 in5.6 miEast (90°)11.5 mphScattered Clouds
11:30 AM87.8 °F64.4 °F46 %29.83 in6.2 miESE (110°)9.2 mphScattered Clouds
12:00 PM89.6 °F60.8 °F38 %29.83 in6.2 miEast (90°)9.2 mphScattered Clouds
12:30 PM89.6 °F60.8 °F38 %29.80 in6.2 miEast (80°)9.2 mphScattered Clouds
1:00 PM90.0 °F65.0 °F34 %29.79 in6.0 miEast (100°)5.8 mphScattered Clouds
1:00 PM91.4 °F60.8 °F36 %29.80 in6.2 miESE (110°)9.2 mphScattered Clouds
1:30 PM91.4 °F60.8 °F36 %29.77 in6.2 miEast (90°)10.4 mphScattered Clouds
2:00 PM91.4 °F60.8 °F36 %29.77 in6.2 miEast (90°)9.2 mphScattered Clouds
2:30 PM91.4 °F64.4 °F41 %29.74 in6.2 miEast (100°)10.4 mphScattered Clouds
3:00 PM86.0 °F69.8 °F58 %29.74 in6.2 miVariable9.2 mphScattered Clouds
3:30 PM87.8 °F69.8 °F55 %29.74 in5.6 miWest (270°)15.0 mphScattered Clouds
4:00 PM86.0 °F68.0 °F55 %29.74 in5.6 miWest (270°)13.8 mphScattered Clouds
4:30 PM86.0 °F68.0 °F55 %29.74 in5.6 miWest (280°)13.8 mphScattered Clouds
5:00 PM86.0 °F68.0 °F55 %29.74 in5.6 miWest (260°)12.7 mphScattered Clouds
5:30 PM86.0 °F68.0 °F55 %29.74 in5.6 miWest (270°)12.7 mphMostly Cloudy
6:00 PM86.0 °F66.2 °F51 %29.74 in5.6 miWest (280°)11.5 mphMostly Cloudy
6:30 PM84.2 °F64.4 °F51 %29.77 in5.0 miWest (270°)9.2 mphMostly Cloudy
7:00 PM85.0 °F69.0 °F49 %29.73 in5.0 miWest (270°)4.6 mphHaze
7:30 PM78.8 °F68.0 °F69 %29.80 in5.0 miCalmMostly Cloudy
8:00 PM78.8 °F68.0 °F69 %29.80 in5.0 miCalmMostly Cloudy
8:30 PM78.8 °F68.0 °F69 %29.83 in5.0 miCalmMostly Cloudy
9:00 PM77.0 °F69.8 °F78 %29.83 in5.0 miCalmMostly Cloudy
9:30 PM77.0 °F69.8 °F78 %29.83 in5.0 miCalmScattered Clouds
10:00 PM78.8 °F69.8 °F74 %29.86 in5.6 miVariable2.3 mphScattered Clouds
10:30 PM77.0 °F69.8 °F78 %29.86 in5.6 miVariable3.5 mphScattered Clouds
11:00 PM77.0 °F71.6 °F83 %29.86 in5.6 miCalmScattered Clouds
11:30 PM77.0 °F69.8 °F78 %29.86 in5.6 miCalmScattered Clouds
Hourly data recorded from VTSP, located miles away from Phuket, Thailand







STORIES FROM OUR PARTNERS